Location: Castrojimeno
(41.3966°N, 3.8473°W)
Time: 10:48:38
(UTC+00:00)

CZ-4B DEB - Pass Details

Date: 15 May 2026
Orbit: 833 x 854 km, 98.9° (Epoch: 8 June)

Event Time Altitude Azimuth Distance (km) Brightness Sun altitude
Exits shadow 20:01:14 - 153° (SSE) 3,149 6.6 -6.3°
Reaches altitude 10° 20:02:58 10° 151° (SSE) 2,475 6.1 -6.6°
Maximum altitude 20:08:23 62° 72° (ENE) 960 4.4 -7.5°
Drops below altitude 10° 20:13:50 10° 353° (N) 2,493 7.3 -8.3°
Sets 20:16:14 0° 350° (N) 3,432 8.1 -8.7°
